Hourly Data Report for June 22, 2021

BORDEN AWOS
ONTARIO
Current Station Operator: DND

44°16'20.000" N
79°54'42.000" W
222.50 m
611B002
71534
YBN

Download Data

Hourly Data (June 2021)
Hourly Data Report for June 22, 2021
TIME
LST
Temp Definition
°C
Dew Point Definition
°C
Rel Hum Definition
%
Precip. Amount Definition
mm

Wind Dir Definition
10's deg

Wind Spd Definition
km/h
Visibility Definition
km
Stn Press Definition
kPa
Hmdx Definition


Wind Chill Definition


Weather Definition


00:00 10.7 7.1 78   27 15 14.5 98.14     LegendNANA
01:00 11.1 7.1 76   28 11 14.5 98.17     LegendNANA
02:00 10.0 8.3 89   32 6 5.6 98.21     Rain
03:00 9.7 8.0 89   30 9 14.5 98.21     Drizzle
04:00 9.5 8.1 91   28 4 14.5 98.30     LegendNANA
05:00 9.0 7.3 89   33 7 14.5 98.34     LegendNANA
06:00 9.0 6.6 85   32 7 14.5 98.42     LegendNANA
07:00 10.0 7.2 83   33 7 14.5 98.50     LegendNANA
08:00 10.5 5.8 73   34 11 14.5 98.57     LegendNANA
09:00 11.6 5.2 65   30 19 14.5 98.63     LegendNANA
10:00 13.4 4.5 55   31 20 14.5 98.68     LegendNANA
11:00 14.6 2.9 45   29 19 14.5 98.71     LegendNANA
12:00 15.4 2.7 42   30 19 14.5 98.70     LegendNANA
13:00 16.3 2.8 40   35 17 14.5 98.68     LegendNANA
14:00 16.7 3.9 43   34 17 14.5 98.65     LegendNANA
15:00 16.0 3.7 44   33 13 14.5 98.64     LegendNANA
16:00 16.5 4.6 45   34 20 14.5 98.65     LegendNANA
17:00 16.5 4.4 45   33 11 14.5 98.69     LegendNANA
18:00 15.5 3.6 45   34 17 14.5 98.70     LegendNANA
19:00 14.4 3.6 48   34 13 14.5 98.76     LegendNANA
20:00 12.3 4.5 59   34 6 14.5 98.81     LegendNANA
21:00 7.4 2.9 73   19 4 14.5 98.89     LegendNANA
22:00 6.3 3.3 81     0 14.5 98.94     LegendNANA
23:00 6.5 3.4 81     0 14.5 98.97     LegendNANA

Notes on Data Quality.

Legend

  • E = Estimated
  • M = Missing
  • NA = Not Available*
  • [empty] = Indicates an unobserved value
Date modified: